Regional Weather Roundup
Issued by NWS

Home | Current Version | Previous Version | Graphics & Text | Print | Product List | Glossary On
Versions: 1 2 3 4 5 6 7 8 9 10 11 12 13 14 15 16 17 18 19 20 21 22 23 24 25 26 27 28 29 30 31 32 33 34 35 36 37 38 39 40 41 42 43 44 45 46 47 48 49 50
554
ASUS43 KFSD 052110
RWRSD

WEATHER ROUNDUP FOR SOUTH DAKOTA
NATIONAL WEATHER SERVICE SIOUX FALLS SD
300 PM CST MON DEC 05 2016

NOTE: "FAIR" INDICATES FEW OR NO CLOUDS BELOW 12,000 FEET WITH NO
SIGNIFICANT WEATHER AND/OR OBSTRUCTIONS TO VISIBILITY.


SDZ001>005-009-010-012>017-052200-
NORTHWEST AND NORTH CENTRAL SOUTH DAKOTA

CITY           SKY/WX    TMP DP  RH WIND       PRES   REMARKS
BUFFALO          N/A     23  13  65 NW38G49   29.65R WCI   4
FAITH            N/A     22  20  92 NW33G41   29.66R WCI   3
MOBRIDGE       HVY SNOW  27  23  85 NW30G39   29.56R VSB 1/4 WCI  11
$$

SDZ012>016-024>037-041>051-057-063-072>074-052200-
SOUTHWEST AND SOUTH CENTRAL SOUTH DAKOTA

CITY           SKY/WX    TMP DP  RH WIND       PRES   REMARKS
RAPID CTY ARPT FLURRIES  23  14  68 N35G48    29.71R WCI   4
PIERRE         LGT SNOW  29  24  82 NW33G44   29.62R WCI  13
CUSTER         SUNNY     21   4  47 NW12      29.60R WCI   9
ELLSWORTH AFB  PTSUNNY   23  14  67 NW31G45   29.70  WCI   5
PINE RIDGE     LGT SNOW  24  20  84 N8        29.74R FOG     WCI  15
SPEARFISH      FLURRIES  19  14  79 NW23G30   29.75S WCI   2
WINNER         CLOUDY    32  24  72 NW32G45   29.63R WCI  17
$$

SDZ004>011-016>023-039-040-052200-
NORTHEAST SOUTH DAKOTA

CITY           SKY/WX    TMP DP  RH WIND       PRES   REMARKS
ABERDEEN       CLOUDY    38  30  73 N9        29.47R
WATERTOWN      SUNNY     39  32  76 S12       29.43S
BROOKINGS      SUNNY     42  33  70 S16       29.46R
SISSETON         N/A     35  32  88 S12       29.48R WCI  27
$$

SDZ017-020-022-023-036>040-048>070-052200-
SOUTHEAST SOUTH DAKOTA

CITY           SKY/WX    TMP DP  RH WIND       PRES   REMARKS
SIOUX FALLS    CLOUDY    44  34  67 S17G24    29.51R
HURON          MOSUNNY   37  30  75 W20G29    29.50R
CHAMBERLAIN    CLOUDY    34  31  89 W29G38    29.60R WCI  20
MITCHELL       PTSUNNY   40  31  70 W22G29    29.53R
YANKTON        CLOUDY    46  30  53 SW14      29.54R
$$

ABBREVIATIONS USED IN REMARKS
   TC - TEMPERATURE IN CELSIUS
  WCI - WIND CHILL INDEX
   HX - HEAT INDEX
  VSB - VISIBILITY





USA.gov is the U.S. government's official web portal to all federal, state and local government web resources and services.